Regional Weather Roundup
Issued by NWS Jackson, KY

Home | Current Version | Previous Version | Graphics & Text | Print | Product List | Glossary On
Versions: 1 2 3 4 5 6 7 8 9 10 11 12 13 14 15 16 17 18 19 20 21 22 23 24 25 26 27
000
ASUS43 KJKL 210710
RWRJKL

EAST KENTUCKY HOURLY WEATHER ROUNDUP
NATIONAL WEATHER SERVICE JACKSON KY
300 AM EDT MON AUG 21 2017

NOTE: "FAIR" INDICATES FEW OR NO CLOUDS BELOW 12,000 FEET WITH
NO SIGNIFICANT WEATHER AND/OR OBSTRUCTIONS TO VISIBILITY.

* THESE REPORTS ARE NOT UNDER NWS QUALITY CONTROL AND MAY NOT
  REPORT WEATHER SUCH AS PRECIPITATION AND FOG.

KYZ079-080-083-085-087-088-110-112-115-119-120-210800
...EASTERN KENTUCKY...

CITY           SKY/WX    TMP DP  RH WIND       PRES   REMARKS
JACKSON        PTCLDY    72  67  84 CALM      30.18S
LONDON         CLOUDY    69  66  90 CALM      30.18S
SOMERSET*      CLEAR     64  64 100 CALM      30.17S
MONTICELLO*    CLOUDY    65  65 100 W6        30.18S FOG
WILLIAMSBURG*  CLOUDY    66  66 100 CALM      30.17F
MIDDLESBORO*   MOCLDY    67  67 100 CALM      30.21S
HARLAN APT*    CLOUDY    68  66  94 CALM      30.21F VSB 3/4
PIKE CO APT*     N/A     70  70 100 S3        30.19S
BIG SANDY APT* SUNNY     71  71 100 CALM      30.18S
MOREHEAD APT*  CLOUDY    72  68  88 CALM      30.17S
$$

KYZ035-036-041-042-044-050-067-078-099-210800
...CENTRAL KENTUCKY...

CITY           SKY/WX    TMP DP  RH WIND       PRES   REMARKS
MT STERLING*   CLEAR     70  68  94 SW3       30.17S
FLEMING/MASON* CLEAR     72  69  90 S5        30.16R
DANVILLE*      PTCLDY    68  66  94 CALM      30.17R
LEXINGTON      CLEAR     74  66  76 S6        30.15S
FRANKFORT      CLEAR     70  66  87 CALM      30.13R
LOUISVILLE     PTCLDY    79  67  66 CALM      30.12R
LEBANON*         N/A     72  66  83 CALM      30.14S
GLASGOW*       CLEAR     67  67 100 CALM      30.13S
BOWLING GREEN  CLEAR     72  70  93 CALM      30.12F
$$

KYZ091>093-OHZ055-061-077-WVZ005-015-034-035-042-210800
...SOUTHERN OHIO/WEST VIRGINIA...

CITY           SKY/WX    TMP DP  RH WIND       PRES   REMARKS
COVINGTON      PTCLDY    74  70  87 S6        30.14R
COLUMBUS       PTCLDY    73  70  90 CALM      30.13S
DAYTON         CLOUDY    73  65  75 SE5       30.14S
WILMINGTON     PTCLDY    70  69  97 CALM      30.14R
HUNTINGTON     PTCLDY    70  68  93 CALM      30.14F
CHARLESTON     PTCLDY    68  67  96 CALM      30.16S
PINEVILLE*     CLEAR     65  64  96 MISG      30.27R FOG
BECKLEY        CLEAR     69  63  81 SE7       30.26S
BLUEFIELD      CLOUDY    71  62  73 SE3       30.29R
LOGAN CO APT*    N/A     68  66  94 CALM      30.20S
$$

VAZ002-007-008-TNZ017-027-036-066-071-210800
...SOUTHWEST VIRGINIA/EAST TENNESSEE...

CITY           SKY/WX    TMP DP  RH WIND       PRES   REMARKS
WISE*          CLOUDY    70  61  73 S3        30.28S
JONESVILLE*      N/A     66  66 100 CALM      30.22S
ABINGDON*      PTCLDY    70  67  92 E3        30.24S
BRISTOL        MOCLDY    68  67  96 CALM      30.21R
MORRISTOWN*    SUNNY     70  66  88 CALM      30.18R
SEVIERVILLE*   SUNNY     70  66  88 CALM      30.17R
KNOXVILLE      CLEAR     71  67  87 CALM      30.16R
LAFOLLETTE*    SUNNY     68  68 100 CALM      30.21S FOG
OAK RIDGE      CLEAR     72  69  90 CALM      30.18S
CROSSVILLE     CLEAR     66  65  96 CALM      30.22S
NASHVILLE      PTCLDY    74  69  85 SE3       30.12F
$$

...KEY TO REMARKS...
VSB - VISIBILITY IN MILES
WCI - WIND CHILL INDEX
HX  - HEAT INDEX

$$




USA.gov is the U.S. government's official web portal to all federal, state and local government web resources and services.